Northeast Philadelphia, PA

11:36 PM EDT on April 21, 2018 (GMT -0400)
Northeast Philadelphia

Weather History for KPNE - November, 2012

Change the Weather History Date:

Thursday, November 8, 2012

  Actual Average Record
Temperature  
Mean Temperature 42 °F -  
Max Temperature 50 °F 54 °F 72 °F (1996)
Min Temperature 33 °F 37 °F 30 °F (2002)
Degree Days  
Heating Degree Days 24    
Moisture  
Dew Point 22 °F    
Average Humidity 48    
Maximum Humidity 87    
Minimum Humidity 26    
Precipitation  
Precipitation 0.01 in - - ()
Sea Level Pressure  
Sea Level Pressure 29.87 in    
Wind  
Wind Speed 13 mph (NNW)    
Max Wind Speed 21 mph    
Max Gust Speed 34 mph    
Visibility 10 miles    
Events Snow    
Averages and records for this station are not official NWS values.
T = Trace of Precipitation, MM = Missing Value Source: NWS Daily Summary

Daily Weather History Graph

Daily Weather History Graph

Search for Another Location

Airport or City:

Astronomy

Nov. 08, 2012 Rise Set
Actual Time 6:37 AM EST 4:49 PM EST
Civil Twilight 6:09 AM EST 5:17 PM EST
Nautical Twilight 5:36 AM EST 5:50 PM EST
Astronomical Twilight 5:04 AM EST 6:22 PM EST
Moon 12:30 AM EST (11/8) 1:29 PM EST (11/8)
Length of Visible Light 11h 08m
Length of Day
10h 11m
Waning Crescent, 33% of the Moon is Illuminated
Nov 8
Waning Crescent
Nov 13
New
Nov 20
First Quarter
Nov 28
Full
Dec 6
Last Quarter

Hourly Weather History & Observations

Time (EST) Temp. Windchill Dew Point Humidity Pressure Visibility Wind Dir Wind Speed Gust Speed Precip Events Conditions
12:03 AM 33.8 °F 24.8 °F 30.2 °F 87% 29.83 in 3.0 mi North 12.7 mph 24.2 mph 0.00 in Snow Light Snow
12:54 AM 36.0 °F 29.6 °F 30.0 °F 79% 29.83 in 10.0 mi North 8.1 mph - 0.01 in   Overcast
1:54 AM 36.0 °F 29.0 °F 30.0 °F 79% 29.82 in 10.0 mi NNW 9.2 mph - N/A   Overcast
2:54 AM 37.9 °F 30.9 °F 27.0 °F 65% 29.81 in 10.0 mi NNW 10.4 mph - N/A   Overcast
3:54 AM 37.9 °F 29.6 °F 26.1 °F 62% 29.81 in 10.0 mi NNW 13.8 mph - N/A   Overcast
4:54 AM 39.0 °F 31.0 °F 23.0 °F 53% 29.81 in 10.0 mi NW 13.8 mph 23.0 mph N/A   Overcast
5:54 AM 39.0 °F 32.8 °F 21.9 °F 50% 29.81 in 10.0 mi NW 9.2 mph - N/A   Overcast
6:54 AM 39.0 °F 32.8 °F 21.0 °F 49% 29.83 in 10.0 mi NW 9.2 mph - N/A   Overcast
7:54 AM 39.9 °F 34.5 °F 21.9 °F 49% 29.85 in 10.0 mi NNW 8.1 mph - N/A   Partly Cloudy
8:54 AM 41.0 °F 32.8 °F 21.9 °F 47% 29.86 in 10.0 mi NNW 16.1 mph 19.6 mph N/A   Clear
9:54 AM 42.1 °F 34.9 °F 21.9 °F 45% 29.86 in 10.0 mi NNW 13.8 mph 23.0 mph N/A   Clear
10:54 AM 45.0 °F 37.9 °F 21.0 °F 39% 29.86 in 10.0 mi North 16.1 mph 27.6 mph N/A   Scattered Clouds
11:54 AM 46.4 °F 38.7 °F 19.4 °F 34% 29.85 in 10.0 mi NNW 20.7 mph 29.9 mph N/A   Overcast
12:54 PM 46.0 °F 38.3 °F 19.0 °F 34% 29.83 in 10.0 mi NNW 20.7 mph 32.2 mph N/A   Mostly Cloudy
1:54 PM 46.0 °F 39.0 °F 17.1 °F 31% 29.83 in 10.0 mi NNW 17.3 mph 31.1 mph N/A   Scattered Clouds
2:54 PM 50.0 °F - 16.0 °F 26% 29.83 in 10.0 mi NNW 17.3 mph 32.2 mph N/A   Mostly Cloudy
3:54 PM 50.0 °F - 16.0 °F 26% 29.84 in 10.0 mi NNW 16.1 mph 24.2 mph N/A   Scattered Clouds
4:54 PM 48.0 °F - 18.0 °F 30% 29.86 in 10.0 mi NNW 12.7 mph 21.9 mph N/A   Clear
5:54 PM 46.0 °F 41.0 °F 19.0 °F 34% 29.89 in 10.0 mi NNW 10.4 mph - N/A   Clear
6:54 PM 44.1 °F 35.7 °F 19.9 °F 38% 29.92 in 10.0 mi NNW 20.7 mph 34.5 mph N/A   Clear
7:54 PM 43.0 °F 36.8 °F 19.9 °F 40% 29.94 in 10.0 mi NNW 11.5 mph 20.7 mph N/A   Clear
8:54 PM 42.1 °F 33.9 °F 21.0 °F 43% 29.96 in 10.0 mi NNW 17.3 mph 24.2 mph N/A   Clear
9:54 PM 39.9 °F 31.8 °F 21.0 °F 47% 29.98 in 10.0 mi NNW 15.0 mph 23.0 mph N/A   Clear
10:54 PM 37.9 °F 29.6 °F 21.9 °F 53% 29.99 in 10.0 mi NNW 13.8 mph 21.9 mph N/A   Clear
11:54 PM 37.9 °F 30.0 °F 21.9 °F 53% 30.00 in 10.0 mi NNW 12.7 mph - N/A   Clear